Location: Unspecified
(0.0000°N, 0.0000°E)
Time: 12:45:37
(UTC+00:00)

Courier 1B Rocket - All Passes

Search period start: 24 October 2014 00:00
Search period end: 03 November 2014 00:00
Orbit: 921 x 1202 km, 28.3° (Epoch: 22 October)

Date Brightness Start Highest point End Pass type
(mag) Time Alt. Az. Time Alt. Az. Time Alt. Az.
24 Oct - 01:32:00 10° WNW 01:37:12 20° NNW 01:42:32 10° NNE night (unlit)
24 Oct - 07:22:36 10° N 07:25:09 12° NNE 07:27:40 10° NE daylight
24 Oct - 09:13:19 10° NW 09:19:49 35° NNE 09:25:53 10° E daylight
24 Oct - 11:06:35 10° WNW 11:13:30 69° SSW 11:19:57 10° SE daylight
24 Oct - 13:02:46 10° WSW 13:07:09 19° SSW 13:11:26 10° SSE daylight
24 Oct - 20:42:27 10° SSW 20:48:02 28° SSE 20:53:56 10° E visible
24 Oct - 22:34:43 10° WSW 22:41:43 86° NNW 22:49:14 10° ENE night (unlit)
25 Oct - 00:29:41 10° W 00:35:43 27° NNW 00:42:02 10° NNE night (unlit)
25 Oct - 08:12:40 10° NNW 08:18:30 25° NNE 08:24:03 10° ENE daylight
25 Oct - 10:05:16 10° WNW 10:12:28 80° NNE 10:19:09 10° ESE daylight
25 Oct - 12:00:19 10° W 12:06:02 29° SSW 12:11:29 10° SSE daylight
25 Oct - 19:42:32 10° SSW 19:46:51 18° SSE 19:51:19 10° ESE visible
25 Oct - 21:33:55 10° SW 21:40:37 64° SSE 21:47:49 10° ENE visible
25 Oct - 23:27:52 10° W 23:34:23 39° NNW 23:41:18 10° NE night (unlit)
26 Oct - 01:25:37 10° NW 01:29:02 13° NNW 01:32:30 10° N night (unlit)
26 Oct - 07:12:14 10° NNW 07:17:03 18° NNE 07:21:42 10° ENE daylight
26 Oct - 09:04:10 10° NW 09:11:21 54° NNE 09:18:02 10° ESE daylight
26 Oct - 10:58:20 10° W 11:04:59 44° SSW 11:11:12 10° SE daylight
26 Oct - 12:56:26 10° SW 12:58:56 12° SSW 13:01:24 10° S daylight
26 Oct - 18:43:28 10° S 18:45:34 12° SSE 18:47:41 10° SE visible
26 Oct - 20:33:24 10° SW 20:39:33 42° SSE 20:46:07 10° E visible
26 Oct - 22:26:28 10° WSW 22:33:10 56° NNW 22:40:22 10° NE night (unlit)
27 Oct - 00:22:38 10° WNW 00:27:26 19° NNW 00:32:24 10° NNE night (unlit)
27 Oct - 06:12:12 10° N 06:15:26 13° NNE 06:18:36 10° NE daylight
27 Oct - 08:03:16 10° NW 08:10:08 37° NNE 08:16:35 10° E daylight
27 Oct - 09:56:40 10° WNW 10:03:55 68° SSW 10:10:39 10° SE daylight
27 Oct - 11:53:00 10° WSW 11:57:40 19° SSW 12:02:09 10° SSE daylight
27 Oct - 19:33:09 10° SSW 19:38:29 27° SSE 19:44:05 10° E visible
27 Oct - 21:25:24 10° WSW 21:32:03 83° NNW 21:39:15 10° ENE visible
27 Oct - 23:20:21 10° W 23:25:59 26° NNW 23:31:56 10° NNE night (unlit)
28 Oct - 07:02:33 10° NNW 07:08:46 26° NNE 07:14:44 10° E daylight
28 Oct - 08:55:17 10° WNW 09:02:49 82° NNE 09:09:49 10° ESE daylight
28 Oct - 10:50:28 10° W 10:56:29 29° SSW 11:02:11 10° SSE daylight
28 Oct - 18:33:15 10° SSW 18:37:21 18° SSE 18:41:34 10° ESE visible
28 Oct - 20:24:37 10° SW 20:31:02 65° SSE 20:37:54 10° ENE visible
28 Oct - 22:18:34 10° W 22:24:42 36° NNW 22:31:15 10° NE night (unlit)
29 Oct - 00:16:31 10° NW 00:19:18 12° NNW 00:22:09 10° N night (unlit)
29 Oct - 06:02:06 10° NNW 06:07:16 19° NNE 06:12:20 10° ENE daylight
29 Oct - 07:54:08 10° NW 08:01:37 56° NNE 08:08:40 10° ESE daylight
29 Oct - 09:48:24 10° W 09:55:21 44° SSW 10:01:52 10° SE daylight
29 Oct - 11:46:32 10° SW 11:49:25 13° SSW 11:52:15 10° S daylight
29 Oct - 17:34:13 10° S 17:36:06 11° SSE 17:38:00 10° SE daylight
29 Oct - 19:24:06 10° SW 19:30:03 42° SSE 19:36:18 10° E visible
29 Oct - 21:17:11 10° WSW 21:23:33 53° NNW 21:30:24 10° NE visible
29 Oct - 23:13:27 10° WNW 23:17:45 17° NNW 23:22:13 10° NNE night (unlit)
30 Oct - 05:02:02 10° N 05:05:38 14° NNE 05:09:13 10° NE visible
30 Oct - 06:53:13 10° NW 07:00:20 39° NNE 07:07:10 10° E daylight
30 Oct - 08:46:41 10° WNW 08:54:13 67° SSW 09:01:16 10° SE daylight
30 Oct - 10:43:06 10° WSW 10:48:05 20° SSW 10:52:52 10° SSE daylight
30 Oct - 18:23:49 10° SSW 18:29:02 27° SSE 18:34:23 10° E visible
30 Oct - 20:16:07 10° WSW 20:22:31 81° NNW 20:29:21 10° ENE visible
30 Oct - 22:11:09 10° WNW 22:16:21 24° NNW 22:21:51 10° NNE night (unlit)
31 Oct - 05:52:31 10° NNW 05:58:57 28° NNE 06:05:14 10° E daylight
31 Oct - 07:45:16 10° WNW 07:53:02 84° NNE 08:00:22 10° ESE daylight
31 Oct - 09:40:31 10° W 09:46:50 30° SSW 09:52:50 10° SSE daylight
31 Oct - 17:23:53 10° SSW 17:27:55 18° SSE 17:32:01 10° ESE daylight
31 Oct - 19:15:19 10° SW 19:21:34 67° SSE 19:28:07 10° ENE visible
31 Oct - 21:09:21 10° W 21:15:08 34° NNW 21:21:16 10° NE visible
31 Oct - 23:07:50 10° NW 23:09:40 11° NNW 23:11:31 10° N night (unlit)
01 Nov - 04:52:05 10° NNW 04:57:27 20° NNE 05:02:46 10° ENE visible
01 Nov - 06:44:07 10° NW 06:51:47 59° NNE 06:59:09 10° ESE daylight
01 Nov - 08:38:24 10° W 08:45:37 44° SSW 08:52:27 10° SE daylight
01 Nov - 10:36:30 10° SW 10:39:49 14° SSW 10:43:04 10° S daylight
01 Nov - 16:24:41 10° S 16:26:41 12° SSE 16:28:41 10° SE daylight
01 Nov - 18:14:45 10° SW 18:20:37 42° SSE 18:26:38 10° E visible
01 Nov - 20:07:56 10° WSW 20:14:03 50° NNW 20:20:31 10° NE visible
01 Nov - 22:04:24 10° WNW 22:08:09 15° NNW 22:12:01 10° NNE night (unlit)
02 Nov - 03:52:06 10° N 03:55:49 14° NNE 03:59:34 10° NE visible
02 Nov - 05:43:13 10° NW 05:50:28 41° NNE 05:57:34 10° E daylight
02 Nov - 07:36:41 10° WNW 07:44:24 66° SSW 07:51:46 10° SE daylight
02 Nov - 09:33:07 10° WSW 09:38:25 20° SSW 09:43:31 10° SSE daylight
02 Nov - 17:14:25 10° SSW 17:19:37 27° SSE 17:24:51 10° E daylight
02 Nov - 19:06:50 10° WSW 19:13:05 78° NNW 19:19:36 10° NE visible
02 Nov - 21:02:01 10° WNW 21:06:49 22° NNW 21:11:50 10° NNE visible
